TimeEET,TemperatureF,Dew PointF,Humidity,Sea Level PressureIn,VisibilityMPH,Wind Direction,Wind SpeedMPH,Gust SpeedMPH,PrecipitationIn,Events,Conditions,WindDirDegrees,DateUTC
12:20 AM,59.0,48.2,67,29.98,6.2,North,4.6,-,N/A,,Partly Cloudy,360,2012-11-17 22:20:00
12:50 AM,59.0,48.2,67,29.98,6.2,North,4.6,-,N/A,,Partly Cloudy,360,2012-11-17 22:50:00
1:20 AM,57.2,46.4,67,29.95,6.2,North,5.8,-,N/A,,Partly Cloudy,350,2012-11-17 23:20:00
1:50 AM,57.2,46.4,67,29.98,6.2,NNW,4.6,-,N/A,,Partly Cloudy,340,2012-11-17 23:50:00
2:00 AM,57,47,60,29.96,6,NNW,4.6,,,,Scattered Clouds,340,2012-11-18 00:00:00
2:20 AM,57.2,46.4,67,29.98,6.2,Variable,2.3,-,N/A,,Partly Cloudy,0,2012-11-18 00:20:00
2:50 AM,57.2,46.4,67,29.95,6.2,North,4.6,-,N/A,,Partly Cloudy,350,2012-11-18 00:50:00
3:20 AM,57.2,46.4,67,29.95,6.2,North,4.6,-,N/A,,Partly Cloudy,350,2012-11-18 01:20:00
3:50 AM,55.4,46.4,72,29.95,6.2,NW,4.6,-,N/A,,Scattered Clouds,320,2012-11-18 01:50:00
4:20 AM,57.2,46.4,67,29.95,6.2,NNW,5.8,-,N/A,,Scattered Clouds,340,2012-11-18 02:20:00
4:50 AM,55.4,46.4,72,29.95,6.2,NNW,4.6,-,N/A,,Scattered Clouds,340,2012-11-18 02:50:00
5:20 AM,55.4,46.4,72,29.95,6.2,North,4.6,-,N/A,,Scattered Clouds,350,2012-11-18 03:20:00
5:50 AM,55.4,46.4,72,29.95,6.2,North,4.6,-,N/A,,Scattered Clouds,350,2012-11-18 03:50:00
6:20 AM,55.4,44.6,67,29.95,6.2,North,4.6,-,N/A,,Scattered Clouds,360,2012-11-18 04:20:00
6:50 AM,57.2,44.6,63,29.98,6.2,North,5.8,-,N/A,,Scattered Clouds,360,2012-11-18 04:50:00
7:20 AM,57.2,44.6,63,29.98,6.2,North,5.8,-,N/A,,Scattered Clouds,360,2012-11-18 05:20:00
7:50 AM,59.0,48.2,67,29.98,6.2,NNW,3.5,-,N/A,,Mostly Cloudy,340,2012-11-18 05:50:00
8:00 AM,59,47,55,29.99,6,NNW,3.5,,,,Partly Cloudy,340,2012-11-18 06:00:00
8:20 AM,60.8,46.4,59,29.98,6.2,NNW,4.6,-,N/A,,Mostly Cloudy,340,2012-11-18 06:20:00
8:50 AM,62.6,48.2,59,29.98,6.2,North,5.8,-,N/A,,Mostly Cloudy,360,2012-11-18 06:50:00
9:20 AM,66.2,50.0,56,30.01,6.2,North,5.8,-,N/A,,Scattered Clouds,360,2012-11-18 07:20:00
9:50 AM,66.2,48.2,52,30.01,6.2,North,5.8,-,N/A,,Scattered Clouds,360,2012-11-18 07:50:00
10:20 AM,69.8,48.2,46,30.01,6.2,NNW,4.6,-,N/A,,Scattered Clouds,330,2012-11-18 08:20:00
10:50 AM,71.6,48.2,43,30.01,6.2,Variable,2.3,-,N/A,,Scattered Clouds,0,2012-11-18 08:50:00
11:20 AM,71.6,50.0,46,29.98,6.2,Variable,1.2,-,N/A,,Scattered Clouds,0,2012-11-18 09:20:00
11:50 AM,73.4,50.0,44,29.98,6.2,Variable,3.5,-,N/A,,Scattered Clouds,0,2012-11-18 09:50:00
12:20 PM,71.6,53.6,53,29.98,6.2,SSW,6.9,-,N/A,,Scattered Clouds,200,2012-11-18 10:20:00
12:50 PM,71.6,51.8,50,29.98,6.2,South,6.9,-,N/A,,Scattered Clouds,180,2012-11-18 10:50:00
1:20 PM,73.4,50.0,44,29.98,6.2,South,6.9,-,N/A,,Scattered Clouds,180,2012-11-18 11:20:00
1:50 PM,73.4,46.4,38,29.95,6.2,South,6.9,-,N/A,,Scattered Clouds,180,2012-11-18 11:50:00
2:00 PM,73,46,27,29.95,6,South,6.9,,,,Partly Cloudy,180,2012-11-18 12:00:00
2:20 PM,71.6,51.8,50,29.95,6.2,South,10.4,-,N/A,,Scattered Clouds,180,2012-11-18 12:20:00
2:50 PM,71.6,53.6,53,29.95,6.2,SSW,9.2,-,N/A,,Scattered Clouds,200,2012-11-18 12:50:00
3:20 PM,71.6,57.2,60,29.98,6.2,South,11.5,-,N/A,,Scattered Clouds,190,2012-11-18 13:20:00
3:50 PM,69.8,57.2,64,29.98,6.2,SSW,9.2,-,N/A,,Scattered Clouds,200,2012-11-18 13:50:00
4:20 PM,69.8,55.4,60,29.98,6.2,SSW,9.2,-,N/A,,Scattered Clouds,210,2012-11-18 14:20:00
4:50 PM,68.0,57.2,68,29.98,6.2,SSW,9.2,-,N/A,,Scattered Clouds,210,2012-11-18 14:50:00
5:20 PM,68.0,57.2,68,29.98,6.2,SSW,10.4,-,N/A,,Scattered Clouds,200,2012-11-18 15:20:00
5:50 PM,68.0,59.0,73,29.98,6.2,SSW,11.5,-,N/A,,Scattered Clouds,200,2012-11-18 15:50:00
6:20 PM,66.2,59.0,78,29.98,6.2,South,8.1,-,N/A,,Partly Cloudy,190,2012-11-18 16:20:00
6:50 PM,66.2,59.0,78,30.01,6.2,South,6.9,-,N/A,,Partly Cloudy,190,2012-11-18 16:50:00
7:20 PM,66.2,57.2,73,30.01,6.2,SSW,4.6,-,N/A,,Scattered Clouds,200,2012-11-18 17:20:00
7:50 PM,66.2,57.2,73,30.01,6.2,SW,4.6,-,N/A,,Scattered Clouds,220,2012-11-18 17:50:00
8:00 PM,66,56,63,30.00,6,SW,4.6,,,,Partly Cloudy,220,2012-11-18 18:00:00
8:20 PM,62.6,57.2,82,30.01,6.2,North,6.9,-,N/A,,Scattered Clouds,360,2012-11-18 18:20:00
8:50 PM,62.6,57.2,82,30.01,6.2,Variable,2.3,-,N/A,,Scattered Clouds,0,2012-11-18 18:50:00
9:20 PM,62.6,57.2,82,30.01,6.2,North,4.6,-,N/A,,Scattered Clouds,360,2012-11-18 19:20:00
9:50 PM,60.8,55.4,82,30.01,6.2,North,5.8,-,N/A,,Scattered Clouds,350,2012-11-18 19:50:00
10:20 PM,60.8,55.4,82,30.04,6.2,NNW,5.8,-,N/A,,Partly Cloudy,340,2012-11-18 20:20:00
10:50 PM,59.0,55.4,88,30.04,6.2,West,3.5,-,N/A,,Partly Cloudy,280,2012-11-18 20:50:00
11:20 PM,60.8,55.4,82,30.04,6.2,NNW,5.8,-,N/A,,Partly Cloudy,340,2012-11-18 21:20:00
11:50 PM,60.8,55.4,82,30.04,6.2,NW,6.9,-,N/A,,Partly Cloudy,310,2012-11-18 21:50:00